Weather History for KBVU - June, 2013

Change the Weather History Date:

Monday, June 17, 2013

  Actual Average (KLAS) Record (KLAS)
Temperature  
Mean Temperature 83 °F 87 °F  
Max Temperature 100 °F 99 °F 113 °F (1940)
Min Temperature 66 °F 75 °F 50 °F (1944)
Degree Days  
Heating Degree Days 0 0  
Month to date heating degree days 0  
Since 1 June heating degree days 0  
Since 1 July heating degree days 1950  
Cooling Degree Days 18 22  
Month to date cooling degree days 336  
Year to date cooling degree days 886  
Since 1 June cooling degree days 336  
Growing Degree Days 33 (Base 50)    
Moisture  
Dew Point 14 °F    
Average Humidity 8    
Maximum Humidity 24    
Minimum Humidity 4    
Precipitation  
Precipitation 0.00 in 0.00 in 0.22 in (1969)
Month to date precipitation 0.04  
Year to date precipitation 2.05  
Snow  
Snow 0.00 in 0.00 in 0.00 in ()
Month to date snowfall 0.0  
Since 1 June snowfall 0.0  
Since 1 July snowfall 0.3  
Snow Depth -    
Sea Level Pressure  
Sea Level Pressure 29.87 in    
Wind  
Wind Speed 5 mph (SSE)    
Max Wind Speed 24 mph    
Max Gust Speed 30 mph    
Visibility 10 miles    
Events Thunderstorm    
T = Trace of Precipitation, MM = Missing Value Source: NWS Daily Summary

Daily Weather History Graph

Daily Weather History Graph

Search for Another Location

Airport or City:

Trip Planner

Search our weather history database for the weather conditions in past years. The results will help you decide how hot, cold, wet, or windy it might be!

Date:

Astronomy

Jun. 17, 2013 Rise Set
Actual Time 5:22 AM PDT 7:58 PM PDT
Civil Twilight 4:52 AM PDT 8:28 PM PDT
Nautical Twilight 4:14 AM PDT 9:06 PM PDT
Astronomical Twilight 3:33 AM PDT 9:48 PM PDT
Moon 1:50 PM PDT (6/17) 12:50 AM PDT (6/17)
Length of Visible Light 15h 36m
Length of Day
14h 35m
First Quarter, 61% of the Moon is Illuminated
Jun 17
First Quarter
Jun 23
Full
Jun 29
Last Quarter
Jul 8
New
Jul 15
First Quarter

Hourly Weather History & Observations

Time (PDT) Temp. Dew Point Humidity Pressure Visibility Wind Dir Wind Speed Gust Speed Precip Events Conditions
12:15 AM 78.8 °F 10.4 °F 7% 29.88 in 10.0 mi WNW 4.6 mph - N/A   Clear
12:35 AM 77.0 °F 8.6 °F 7% 29.89 in 10.0 mi WNW 4.6 mph - N/A   Clear
12:55 AM 78.8 °F 8.6 °F 7% 29.89 in 10.0 mi Calm Calm - N/A   Clear
1:15 AM 75.2 °F 12.2 °F 9% 29.89 in 10.0 mi Calm Calm - N/A Thunderstorm Clear
1:35 AM 75.2 °F 12.2 °F 9% 29.89 in 10.0 mi Calm Calm - N/A   Clear
1:55 AM 75.2 °F 12.2 °F 9% 29.89 in 10.0 mi NW 5.8 mph - N/A   Clear
2:15 AM 73.4 °F 12.2 °F 10% 29.89 in 10.0 mi NW 4.6 mph - N/A   Clear
2:35 AM 75.2 °F 14.0 °F 10% 29.88 in 10.0 mi NW 3.5 mph - N/A   Clear
2:55 AM 71.6 °F 24.8 °F 17% 29.88 in 10.0 mi NNW 4.6 mph - N/A   Clear
3:15 AM 71.6 °F 26.6 °F 19% 29.88 in 10.0 mi NNW 3.5 mph - N/A   Clear
3:35 AM 69.8 °F 26.6 °F 20% 29.89 in 10.0 mi Calm Calm - N/A   Clear
3:55 AM 69.8 °F 26.6 °F 20% 29.89 in 10.0 mi Calm Calm - N/A Thunderstorm Clear
4:15 AM 68.0 °F 24.8 °F 20% 29.89 in 10.0 mi Calm Calm - N/A   Clear
4:35 AM 71.6 °F 23.0 °F 16% 29.90 in 10.0 mi Calm Calm - N/A   Clear
4:55 AM 71.6 °F 21.2 °F 15% 29.90 in 10.0 mi Calm Calm - N/A   Clear
5:15 AM 71.6 °F 24.8 °F 17% 29.91 in 10.0 mi Calm Calm - N/A   Clear
5:35 AM 66.2 °F 28.4 °F 24% 29.91 in 10.0 mi North 4.6 mph - N/A   Clear
5:55 AM 69.8 °F 24.8 °F 18% 29.91 in 10.0 mi Calm Calm - N/A   Clear
6:15 AM 71.6 °F 24.8 °F 17% 29.92 in 10.0 mi North 3.5 mph - N/A   Clear
6:35 AM 77.0 °F 26.6 °F 16% 29.92 in 10.0 mi Calm Calm - N/A   Clear
6:55 AM 78.8 °F 24.8 °F 14% 29.92 in 10.0 mi Calm Calm - N/A   Clear
7:15 AM 82.4 °F 17.6 °F 9% 29.93 in 10.0 mi Calm Calm - N/A   Clear
7:35 AM 82.4 °F 19.4 °F 10% 29.93 in 10.0 mi Calm Calm - N/A   Clear
7:55 AM 84.2 °F 19.4 °F 9% 29.94 in 10.0 mi Calm Calm - N/A   Clear
8:15 AM 84.2 °F 19.4 °F 9% 29.94 in 10.0 mi Calm Calm - N/A Thunderstorm Clear
8:35 AM 86.0 °F 19.4 °F 9% 29.95 in 10.0 mi East 3.5 mph - N/A   Clear
8:55 AM 86.0 °F 17.6 °F 8% 29.95 in 10.0 mi Calm Calm - N/A   Clear
9:15 AM 89.6 °F 17.6 °F 7% 29.95 in 10.0 mi East 3.5 mph - N/A   Clear
9:35 AM 89.6 °F 17.6 °F 7% 29.95 in 10.0 mi ENE 4.6 mph - N/A   Clear
9:55 AM 91.4 °F 17.6 °F 7% 29.94 in 10.0 mi ENE 3.5 mph - N/A   Clear
10:15 AM 91.4 °F 15.8 °F 6% 29.94 in 10.0 mi SE 3.5 mph - N/A   Clear
10:35 AM 93.2 °F 15.8 °F 6% 29.94 in 7.0 mi Calm Calm - N/A   Clear
10:55 AM 93.2 °F 15.8 °F 6% 29.94 in 10.0 mi NNE 3.5 mph - N/A Thunderstorm Clear
11:15 AM 93.2 °F 15.8 °F 6% 29.93 in 10.0 mi North 5.8 mph - N/A   Clear
11:35 AM 95.0 °F 14.0 °F 5% 29.93 in 10.0 mi Calm Calm - N/A   Clear
11:55 AM 96.8 °F 14.0 °F 5% 29.92 in 10.0 mi South 12.7 mph 17.3 mph N/A   Clear
12:15 PM 96.8 °F 12.2 °F 4% 29.92 in 10.0 mi SW 8.1 mph - N/A   Clear
12:35 PM 96.8 °F 10.4 °F 4% 29.92 in 10.0 mi South 3.5 mph - N/A   Clear
12:55 PM 96.8 °F 12.2 °F 4% 29.91 in 10.0 mi WSW 6.9 mph - N/A   Clear
1:15 PM 98.6 °F 12.2 °F 4% 29.90 in 10.0 mi South 12.7 mph 18.4 mph N/A   Clear
1:35 PM 98.6 °F 10.4 °F 4% 29.89 in 10.0 mi SSW 10.4 mph - N/A   Clear
1:55 PM 100.4 °F 10.4 °F 4% 29.88 in 10.0 mi SSE 8.1 mph - N/A   Clear
2:15 PM 98.6 °F 10.4 °F 4% 29.87 in 10.0 mi ESE 8.1 mph - N/A   Clear
2:35 PM 98.6 °F 8.6 °F 4% 29.86 in 10.0 mi East 6.9 mph - N/A   Clear
2:55 PM 98.6 °F 8.6 °F 4% 29.86 in 10.0 mi SE 3.5 mph - N/A Thunderstorm Clear
3:15 PM 100.4 °F 10.4 °F 4% 29.84 in 10.0 mi SE 16.1 mph 21.9 mph N/A   Clear
3:35 PM 100.4 °F 10.4 °F 4% 29.84 in 10.0 mi SE 10.4 mph - N/A   Clear
3:55 PM 100.4 °F 8.6 °F 4% 29.83 in 10.0 mi SSE 16.1 mph 20.7 mph N/A   Clear
4:15 PM 100.4 °F 8.6 °F 4% 29.82 in 10.0 mi SSE 15.0 mph 20.7 mph N/A   Clear
4:35 PM 100.4 °F 8.6 °F 4% 29.81 in 10.0 mi SE 16.1 mph - N/A   Clear
4:55 PM 100.4 °F 8.6 °F 4% 29.80 in 10.0 mi SSE 21.9 mph 25.3 mph N/A   Clear
5:15 PM 100.4 °F 8.6 °F 4% 29.80 in 10.0 mi SSE 23.0 mph 29.9 mph N/A   Clear
5:35 PM 100.4 °F 8.6 °F 4% 29.79 in 10.0 mi SSE 18.4 mph 26.5 mph N/A   Clear
5:55 PM 100.4 °F 10.4 °F 4% 29.79 in 10.0 mi SSE 18.4 mph 25.3 mph N/A   Clear
6:15 PM 98.6 °F 10.4 °F 4% 29.79 in 10.0 mi SSE 19.6 mph 25.3 mph N/A   Clear
6:35 PM 98.6 °F 8.6 °F 4% 29.79 in 10.0 mi SE 19.6 mph 28.8 mph N/A   Clear
6:55 PM 98.6 °F 8.6 °F 4% 29.79 in 10.0 mi SSE 19.6 mph 23.0 mph N/A   Clear
7:15 PM 96.8 °F 8.6 °F 4% 29.79 in 10.0 mi SSE 24.2 mph - N/A   Clear
7:35 PM 95.0 °F 8.6 °F 4% 29.80 in 10.0 mi South 9.2 mph 24.2 mph N/A   Clear
7:55 PM 95.0 °F 6.8 °F 4% 29.80 in 10.0 mi South 5.8 mph - N/A   Clear
8:15 PM 91.4 °F 5.0 °F 4% 29.80 in 10.0 mi SSW 8.1 mph - N/A Thunderstorm Clear
8:35 PM 89.6 °F 5.0 °F 4% 29.80 in 10.0 mi South 6.9 mph - N/A   Clear
8:55 PM 89.6 °F 5.0 °F 4% 29.81 in 10.0 mi South 6.9 mph - N/A   Clear
9:15 PM 89.6 °F 1.4 °F 4% 29.82 in 10.0 mi SSW 8.1 mph - N/A   Clear
9:35 PM 87.8 °F 1.4 °F 4% 29.82 in 10.0 mi South 5.8 mph - N/A   Clear
9:55 PM 86.0 °F 3.2 °F 4% 29.83 in 10.0 mi South 4.6 mph - N/A   Clear
10:15 PM 82.4 °F 15.8 °F 8% 29.83 in 10.0 mi Calm Calm - N/A   Clear
10:35 PM 82.4 °F 12.2 °F 7% 29.83 in 10.0 mi Calm Calm - N/A   Clear
10:55 PM 82.4 °F 14.0 °F 8% 29.83 in 10.0 mi Calm Calm - N/A   Clear
11:15 PM 77.0 °F 26.6 °F 16% 29.83 in 10.0 mi Calm Calm - N/A   Clear
11:35 PM 80.6 °F 17.6 °F 10% 29.82 in 10.0 mi Calm Calm - N/A Thunderstorm Clear
11:55 PM 75.2 °F 30.2 °F 19% 29.82 in 10.0 mi Calm Calm - N/A   Clear